This is the latest recevied weather packets stored in our database for station/object KK6MIG-13. If no packets are shown the sender has not sent any weather packets the latest 1 day(s).
| Time | Temp. | Humidity | Pressure | Rain* | Wind** | Luminosity | Snow |
|---|---|---|---|---|---|---|---|
| 1777993734 | 12.22° C | 1% | 1013.9 hPa | 0 mm | 4.02 m/s, 252° | 33 W/m² | - |
| 1777993610 | 12.22° C | 1% | 1013.9 hPa | 0 mm | 4.02 m/s, 260° | 30 W/m² | - |
| 1777993550 | 12.22° C | 1% | 1013.9 hPa | 0 mm | 3.58 m/s, 252° | 26 W/m² | - |
| 1777993484 | 12.22° C | 1% | 1013.8 hPa | 0 mm | 3.58 m/s, 246° | 23 W/m² | - |
| 1777993424 | 12.22° C | 1% | 1013.8 hPa | 0 mm | 3.58 m/s, 247° | 25 W/m² | - |
| 1777993365 | 12.22° C | 1% | 1013.8 hPa | 0 mm | 3.58 m/s, 296° | 21 W/m² | - |
| 1777993304 | 12.22° C | 1% | 1013.8 hPa | 0 mm | 3.58 m/s, 274° | 23 W/m² | - |
| 1777993243 | 12.22° C | 1% | 1013.8 hPa | 0 mm | 3.58 m/s, 287° | 23 W/m² | - |
| 1777993178 | 12.22° C | 1% | 1013.8 hPa | 0 mm | 3.58 m/s, 265° | 25 W/m² | - |
| 1777993126 | 12.22° C | 1% | 1013.7 hPa | 0 mm | 3.58 m/s, 273° | 30 W/m² | - |
| 1777993122 | 12.22° C | 1% | 1013.7 hPa | 0 mm | 3.58 m/s, 261° | 30 W/m² | - |
| 1777992998 | 12.22° C | 1% | 1013.7 hPa | 0 mm | 3.58 m/s, 344° | 28 W/m² | - |
| 1777992938 | 12.22° C | 1% | 1013.7 hPa | 0 mm | 3.58 m/s, 244° | 28 W/m² | - |
| 1777992872 | 12.22° C | 1% | 1013.7 hPa | 0 mm | 3.13 m/s, 279° | 28 W/m² | - |
| 1777992812 | 12.22° C | 1% | 1013.7 hPa | 0 mm | 3.13 m/s, 256° | 30 W/m² | - |
| 1777992752 | 12.22° C | 1% | 1013.7 hPa | 0 mm | 2.68 m/s, 240° | 32 W/m² | - |
| 1777992700 | 12.22° C | 1% | 1013.7 hPa | 0 mm | 2.68 m/s, 246° | 32 W/m² | - |
| 1777992696 | 12.22° C | 1% | 1013.7 hPa | 0 mm | 2.68 m/s, 257° | 32 W/m² | - |
| 1777992566 | 12.22° C | 1% | 1013.7 hPa | 0 mm | 2.68 m/s, 252° | 32 W/m² | - |
| 1777992506 | 12.22° C | 1% | 1013.8 hPa | 0 mm | 2.68 m/s, 260° | 30 W/m² | - |
| 1777992446 | 12.22° C | 1% | 1013.7 hPa | 0 mm | 2.68 m/s, 279° | 30 W/m² | - |
| 1777992386 | 12.22° C | 1% | 1013.7 hPa | 0 mm | 2.24 m/s, 255° | 28 W/m² | - |
| 1777992326 | 12.22° C | 1% | 1013.7 hPa | 0 mm | 2.24 m/s, 262° | 28 W/m² | - |
| 1777992263 | 12.22° C | 1% | 1013.7 hPa | 0 mm | 2.68 m/s, 271° | 26 W/m² | - |
| 1777992200 | 12.22° C | 1% | 1013.7 hPa | 0 mm | 2.68 m/s, 298° | 23 W/m² | - |
* Rain latest hour (hover to see other rain measurements)
** Current wind speed in m/s (hover to see current wind gust speed)